Time,TemperatureF,DewpointF,PressureIn,WindDirection,WindDirectionDegrees,WindSpeedMPH,WindSpeedGustMPH,Humidity,HourlyPrecipIn,Conditions,Clouds,dailyrainin,SoftwareType,DateUTC
2013-04-08 00:00:00,52.2,44.8,29.79,SSE,158,4.0,4.3,76,0.00,,---,0.00,VWS V14.01,2013-04-08 07:00:00,
2013-04-08 00:05:00,52.3,45.3,29.76,SSE,158,2.0,7.4,77,0.00,,---,0.00,VWS V14.01,2013-04-08 07:05:00,
2013-04-08 00:10:00,52.3,45.3,29.76,SSW,202,3.6,7.4,77,0.00,,---,0.00,VWS V14.01,2013-04-08 07:10:00,
2013-04-08 00:15:00,52.3,45.3,29.76,SW,225,1.6,2.9,77,0.00,,---,0.00,VWS V14.01,2013-04-08 07:15:00,
2013-04-08 00:20:00,52.2,45.8,29.74,SE,135,5.6,5.6,79,0.00,,---,0.00,VWS V14.01,2013-04-08 07:20:00,
2013-04-08 00:25:00,52.0,46.0,29.74,SW,225,4.7,4.7,80,0.00,,---,0.00,VWS V14.01,2013-04-08 07:25:00,
2013-04-08 00:31:00,52.2,46.5,29.74,South,180,4.3,5.4,81,0.00,,---,0.00,VWS V14.01,2013-04-08 07:31:00,
2013-04-08 00:36:00,52.2,46.5,29.74,SSW,202,3.1,4.0,81,0.00,,---,0.00,VWS V14.01,2013-04-08 07:36:00,
2013-04-08 00:41:00,52.0,46.3,29.74,SW,225,1.3,2.9,81,0.00,,---,0.00,VWS V14.01,2013-04-08 07:41:00,
2013-04-08 00:46:00,51.6,46.3,29.74,SSE,158,0.0,0.0,82,0.00,,---,0.00,VWS V14.01,2013-04-08 07:46:00,
2013-04-08 00:52:00,51.6,46.6,29.74,South,180,2.9,2.9,83,0.00,,---,0.00,VWS V14.01,2013-04-08 07:52:00,
2013-04-08 00:57:00,51.4,47.1,29.74,South,180,1.1,2.0,85,0.00,,---,0.00,VWS V14.01,2013-04-08 07:57:00,
2013-04-08 01:02:00,51.3,47.2,29.74,South,180,0.9,2.2,86,0.00,,---,0.00,VWS V14.01,2013-04-08 08:02:00,
2013-04-08 01:07:00,51.1,47.7,29.74,SSE,158,2.0,2.0,88,0.00,,---,0.00,VWS V14.01,2013-04-08 08:07:00,
2013-04-08 01:12:00,51.1,48.2,29.74,SSE,158,0.0,2.5,90,0.00,,---,0.00,VWS V14.01,2013-04-08 08:12:00,
2013-04-08 01:17:00,50.9,47.8,29.74,ESE,112,0.0,0.0,89,0.00,,---,0.00,VWS V14.01,2013-04-08 08:17:00,
2013-04-08 01:22:00,50.5,47.7,29.74,SW,225,2.0,2.2,90,0.00,,---,0.00,VWS V14.01,2013-04-08 08:22:00,
2013-04-08 01:27:00,50.5,47.7,29.74,SSE,158,4.3,4.3,90,0.00,,---,0.00,VWS V14.01,2013-04-08 08:27:00,
2013-04-08 01:33:00,50.5,47.7,29.74,SSW,202,0.0,2.0,90,0.00,,---,0.00,VWS V14.01,2013-04-08 08:33:00,
2013-04-08 01:38:00,50.5,47.7,29.74,SSE,158,0.0,0.0,90,0.00,,---,0.00,VWS V14.01,2013-04-08 08:38:00,
2013-04-08 01:43:00,50.4,47.2,29.74,SSE,158,0.0,0.0,89,0.00,,---,0.00,VWS V14.01,2013-04-08 08:43:00,
2013-04-08 01:48:00,50.4,47.5,29.74,ENE,68,0.0,0.0,90,0.00,,---,0.00,VWS V14.01,2013-04-08 08:48:00,
2013-04-08 01:53:00,50.4,47.5,29.74,ENE,68,0.0,0.0,90,0.00,,---,0.00,VWS V14.01,2013-04-08 08:53:00,
2013-04-08 01:58:00,50.4,47.5,29.74,WNW,292,0.0,0.0,90,0.00,,---,0.00,VWS V14.01,2013-04-08 08:58:00,
2013-04-08 02:03:00,50.4,47.5,29.74,NW,315,0.0,1.1,90,0.00,,---,0.00,VWS V14.01,2013-04-08 09:03:00,
2013-04-08 02:08:00,50.7,48.2,29.74,ESE,112,0.0,0.0,91,0.00,,---,0.00,VWS V14.01,2013-04-08 09:08:00,
2013-04-08 02:13:00,50.7,48.5,29.74,SE,135,0.0,0.0,92,0.00,,---,0.00,VWS V14.01,2013-04-08 09:13:00,
2013-04-08 02:18:00,50.7,48.5,29.71,SW,225,0.0,0.9,92,0.00,,---,0.00,VWS V14.01,2013-04-08 09:18:00,
2013-04-08 02:23:00,50.7,48.8,29.71,WSW,248,0.0,1.1,93,0.00,,---,0.00,VWS V14.01,2013-04-08 09:23:00,
2013-04-08 02:28:00,50.9,48.7,29.71,NNW,338,0.0,1.1,92,0.00,,---,0.00,VWS V14.01,2013-04-08 09:28:00,
2013-04-08 02:33:00,50.9,48.7,29.71,NW,315,2.0,2.0,92,0.00,,---,0.00,VWS V14.01,2013-04-08 09:33:00,
2013-04-08 02:38:00,50.7,48.5,29.71,North,0,2.9,2.9,92,0.00,,---,0.00,VWS V14.01,2013-04-08 09:38:00,
2013-04-08 02:43:00,50.5,48.0,29.71,NW,315,0.0,0.0,91,0.00,,---,0.00,VWS V14.01,2013-04-08 09:43:00,
2013-04-08 02:48:00,50.4,47.8,29.71,NW,315,0.0,0.0,91,0.00,,---,0.00,VWS V14.01,2013-04-08 09:48:00,
2013-04-08 02:53:00,50.2,47.7,29.71,NNW,338,2.2,2.2,91,0.00,,---,0.00,VWS V14.01,2013-04-08 09:53:00,
2013-04-08 02:58:00,50.2,47.7,29.71,NW,315,2.5,2.9,91,0.00,,---,0.00,VWS V14.01,2013-04-08 09:58:00,
2013-04-08 03:03:00,50.2,47.4,29.71,NNW,338,0.0,2.0,90,0.00,,---,0.00,VWS V14.01,2013-04-08 10:03:00,
2013-04-08 03:08:00,50.2,47.4,29.71,WSW,248,0.0,2.7,90,0.00,,---,0.00,VWS V14.01,2013-04-08 10:08:00,
2013-04-08 03:13:00,50.0,46.6,29.71,NNW,338,1.6,1.6,88,0.00,,---,0.00,VWS V14.01,2013-04-08 10:13:00,
2013-04-08 03:18:00,50.0,46.0,29.74,NW,315,2.2,2.9,86,0.00,,---,0.00,VWS V14.01,2013-04-08 10:18:00,
2013-04-08 03:23:00,50.0,45.0,29.74,NW,315,0.0,2.2,83,0.00,,---,0.00,VWS V14.01,2013-04-08 10:23:00,
2013-04-08 03:28:00,49.8,44.9,29.74,WNW,292,4.0,4.0,83,0.00,,---,0.00,VWS V14.01,2013-04-08 10:28:00,
2013-04-08 03:33:00,49.8,44.2,29.74,NNE,22,1.1,1.3,81,0.00,,---,0.00,VWS V14.01,2013-04-08 10:33:00,
2013-04-08 03:39:00,49.8,42.9,29.74,WNW,292,8.1,8.1,77,0.00,,---,0.00,VWS V14.01,2013-04-08 10:39:00,
2013-04-08 03:44:00,49.8,42.2,29.74,NNW,338,4.0,4.7,75,0.00,,---,0.00,VWS V14.01,2013-04-08 10:44:00,
2013-04-08 03:49:00,50.0,42.0,29.74,NNE,22,2.9,4.0,74,0.00,,---,0.00,VWS V14.01,2013-04-08 10:49:00,
2013-04-08 03:54:00,50.0,42.4,29.74,WNW,292,3.4,5.6,75,0.00,,---,0.00,VWS V14.01,2013-04-08 10:54:00,
2013-04-08 03:59:00,50.2,42.2,29.74,NW,315,2.7,4.0,74,0.00,,---,0.00,VWS V14.01,2013-04-08 10:59:00,
2013-04-08 04:04:00,50.2,42.2,29.74,NNW,338,4.0,4.0,74,0.00,,---,0.00,VWS V14.01,2013-04-08 11:04:00,
2013-04-08 04:10:00,50.2,42.2,29.74,NNW,338,4.9,5.8,74,0.00,,---,0.00,VWS V14.01,2013-04-08 11:10:00,
2013-04-08 04:15:00,50.2,42.6,29.74,North,0,4.9,7.8,75,0.00,,---,0.00,VWS V14.01,2013-04-08 11:15:00,
2013-04-08 04:20:00,50.4,42.8,29.74,NNW,338,4.0,5.8,75,0.00,,---,0.00,VWS V14.01,2013-04-08 11:20:00,
2013-04-08 04:25:00,50.4,43.8,29.74,WNW,292,4.0,5.6,78,0.00,,---,0.00,VWS V14.01,2013-04-08 11:25:00,
2013-04-08 04:30:00,50.2,44.3,29.74,East,90,5.6,5.8,80,0.00,,---,0.00,VWS V14.01,2013-04-08 11:30:00,
2013-04-08 04:35:00,50.2,44.6,29.74,WSW,248,2.9,5.8,81,0.00,,---,0.00,VWS V14.01,2013-04-08 11:35:00,
2013-04-08 04:40:00,50.2,44.3,29.74,NNW,338,3.1,6.0,80,0.00,,---,0.00,VWS V14.01,2013-04-08 11:40:00,
2013-04-08 04:45:00,50.2,43.6,29.74,NNW,338,3.8,5.8,78,0.00,,---,0.00,VWS V14.01,2013-04-08 11:45:00,
2013-04-08 04:50:00,50.2,42.9,29.71,ENE,68,4.7,5.6,76,0.00,,---,0.00,VWS V14.01,2013-04-08 11:50:00,
2013-04-08 04:55:00,50.2,42.6,29.71,North,0,5.8,6.3,75,0.00,,---,0.00,VWS V14.01,2013-04-08 11:55:00,
2013-04-08 05:00:00,50.4,42.8,29.71,NW,315,5.6,10.5,75,0.00,,---,0.00,VWS V14.01,2013-04-08 12:00:00,
2013-04-08 05:05:00,50.4,42.4,29.74,West,270,4.5,6.3,74,0.00,,---,0.00,VWS V14.01,2013-04-08 12:05:00,
2013-04-08 05:10:00,50.2,42.2,29.74,North,0,7.4,7.4,74,0.00,,---,0.00,VWS V14.01,2013-04-08 12:10:00,
2013-04-08 05:15:00,50.2,42.2,29.74,WNW,292,7.6,7.8,74,0.00,,---,0.00,VWS V14.01,2013-04-08 12:15:00,
2013-04-08 05:20:00,50.0,42.4,29.74,NNW,338,3.4,5.8,75,0.00,,---,0.00,VWS V14.01,2013-04-08 12:20:00,
2013-04-08 05:25:00,49.8,41.9,29.74,NNW,338,2.5,3.8,74,0.00,,---,0.00,VWS V14.01,2013-04-08 12:25:00,
2013-04-08 05:30:00,49.6,41.7,29.74,NNW,338,4.7,5.4,74,0.00,,---,0.00,VWS V14.01,2013-04-08 12:30:00,
2013-04-08 05:35:00,49.6,41.0,29.74,NW,315,6.3,6.3,72,0.00,,---,0.00,VWS V14.01,2013-04-08 12:35:00,
2013-04-08 05:40:00,49.5,40.5,29.74,NNW,338,4.9,5.4,71,0.00,,---,0.00,VWS V14.01,2013-04-08 12:40:00,
2013-04-08 05:46:00,49.6,39.9,29.74,WNW,292,5.6,7.2,69,0.00,,---,0.00,VWS V14.01,2013-04-08 12:46:00,
2013-04-08 05:51:00,49.6,39.9,29.74,NW,315,0.9,4.0,69,0.00,,---,0.00,VWS V14.01,2013-04-08 12:51:00,
2013-04-08 05:56:00,49.6,39.9,29.74,NW,315,2.5,4.3,69,0.00,,---,0.00,VWS V14.01,2013-04-08 12:56:00,
2013-04-08 06:01:00,49.5,39.7,29.74,NW,315,5.4,5.4,69,0.00,,---,0.00,VWS V14.01,2013-04-08 13:01:00,
2013-04-08 06:07:00,49.5,39.0,29.76,WNW,292,2.7,2.7,67,0.00,,---,0.00,VWS V14.01,2013-04-08 13:07:00,
2013-04-08 06:12:00,49.6,38.0,29.76,NNW,338,7.6,7.6,64,0.00,,---,0.00,VWS V14.01,2013-04-08 13:12:00,
2013-04-08 06:17:00,49.5,38.2,29.76,NNW,338,3.4,3.8,65,0.00,,---,0.00,VWS V14.01,2013-04-08 13:17:00,
2013-04-08 06:22:00,49.6,37.2,29.76,North,0,6.0,6.0,62,0.00,,---,0.00,VWS V14.01,2013-04-08 13:22:00,
2013-04-08 06:27:00,49.5,36.2,29.76,NNW,338,10.5,10.5,60,0.00,,---,0.00,VWS V14.01,2013-04-08 13:27:00,
2013-04-08 06:32:00,49.8,34.8,29.76,North,0,7.6,12.8,56,0.00,,---,0.00,VWS V14.01,2013-04-08 13:32:00,
2013-04-08 06:37:00,49.8,33.9,29.76,North,0,6.0,8.5,54,0.00,,---,0.00,VWS V14.01,2013-04-08 13:37:00,
2013-04-08 06:42:00,49.8,32.9,29.76,NNW,338,5.6,5.6,52,0.00,,---,0.00,VWS V14.01,2013-04-08 13:42:00,
2013-04-08 06:48:00,49.6,32.3,29.79,WNW,292,4.0,6.3,51,0.00,,---,0.00,VWS V14.01,2013-04-08 13:48:00,
2013-04-08 06:53:00,49.6,31.8,29.79,NW,315,4.9,5.8,50,0.00,,---,0.00,VWS V14.01,2013-04-08 13:53:00,
2013-04-08 06:58:00,49.6,31.3,29.79,NNW,338,2.9,4.0,49,0.00,,---,0.00,VWS V14.01,2013-04-08 13:58:00,
2013-04-08 07:03:00,49.5,31.1,29.79,NNW,338,15.4,15.4,49,0.00,,---,0.00,VWS V14.01,2013-04-08 14:03:00,
2013-04-08 07:08:00,49.6,30.8,29.79,NNW,338,5.6,7.4,48,0.00,,---,0.00,VWS V14.01,2013-04-08 14:08:00,
2013-04-08 07:13:00,49.3,31.0,29.79,NNW,338,5.4,7.4,49,0.00,,---,0.00,VWS V14.01,2013-04-08 14:13:00,
2013-04-08 07:18:00,49.3,31.0,29.76,NNW,338,5.4,6.0,49,0.00,,---,0.00,VWS V14.01,2013-04-08 14:18:00,
2013-04-08 07:23:00,49.1,30.8,29.76,NNW,338,12.3,12.3,49,0.00,,---,0.00,VWS V14.01,2013-04-08 14:23:00,
2013-04-08 07:28:00,49.3,31.0,29.76,ENE,68,11.0,15.7,49,0.00,,---,0.00,VWS V14.01,2013-04-08 14:28:00,
2013-04-08 07:33:00,49.1,30.8,29.76,NNW,338,6.5,7.8,49,0.00,,---,0.00,VWS V14.01,2013-04-08 14:33:00,
2013-04-08 07:38:00,49.1,30.3,29.76,NNE,22,4.9,5.6,48,0.00,,---,0.00,VWS V14.01,2013-04-08 14:38:00,
2013-04-08 07:43:00,49.5,30.6,29.76,WNW,292,6.5,8.1,48,0.00,,---,0.00,VWS V14.01,2013-04-08 14:43:00,
2013-04-08 07:48:00,50.0,31.1,29.76,NNW,338,6.5,6.7,48,0.00,,---,0.00,VWS V14.01,2013-04-08 14:48:00,
2013-04-08 07:53:00,50.9,31.4,29.82,NNW,338,3.8,7.2,47,0.00,,---,0.00,VWS V14.01,2013-04-08 14:53:00,
2013-04-08 07:58:00,51.3,31.2,29.82,NW,315,8.1,8.1,46,0.00,,---,0.00,VWS V14.01,2013-04-08 14:58:00,
2013-04-08 08:03:00,50.9,29.8,29.82,NNE,22,7.4,8.5,44,0.00,,---,0.00,VWS V14.01,2013-04-08 15:03:00,
2013-04-08 08:08:00,51.1,30.0,29.82,NW,315,7.8,8.7,44,0.00,,---,0.00,VWS V14.01,2013-04-08 15:08:00,
2013-04-08 08:13:00,51.6,29.9,29.82,NNW,338,4.3,10.1,43,0.00,,---,0.00,VWS V14.01,2013-04-08 15:13:00,
2013-04-08 08:18:00,52.2,29.8,29.82,NNW,338,3.6,10.5,42,0.00,,---,0.00,VWS V14.01,2013-04-08 15:18:00,
2013-04-08 08:23:00,52.5,28.9,29.82,WNW,292,6.0,13.4,40,0.00,,---,0.00,VWS V14.01,2013-04-08 15:23:00,
2013-04-08 08:28:00,52.7,28.5,29.82,NNW,338,4.3,15.4,39,0.00,,---,0.00,VWS V14.01,2013-04-08 15:28:00,
2013-04-08 08:33:00,53.1,28.8,29.79,NNW,338,19.5,19.5,39,0.00,,---,0.00,VWS V14.01,2013-04-08 15:33:00,
2013-04-08 08:38:00,53.6,28.6,29.79,NNW,338,6.0,12.1,38,0.00,,---,0.00,VWS V14.01,2013-04-08 15:38:00,
2013-04-08 08:43:00,54.1,28.5,29.79,NNW,338,5.6,8.7,37,0.00,,---,0.00,VWS V14.01,2013-04-08 15:43:00,
2013-04-08 08:48:00,54.9,29.1,29.82,ENE,68,7.8,12.1,37,0.00,,---,0.00,VWS V14.01,2013-04-08 15:48:00,
2013-04-08 08:53:00,55.0,29.3,29.82,ENE,68,8.5,13.0,37,0.00,,---,0.00,VWS V14.01,2013-04-08 15:53:00,
2013-04-08 08:58:00,55.2,28.8,29.82,NNW,338,4.0,5.6,36,0.00,,---,0.00,VWS V14.01,2013-04-08 15:58:00,
2013-04-08 09:03:00,55.4,28.9,29.79,NNW,338,6.5,9.2,36,0.00,,---,0.00,VWS V14.01,2013-04-08 16:03:00,
2013-04-08 09:09:00,55.9,29.4,29.79,NNE,22,7.2,7.2,36,0.00,,---,0.00,VWS V14.01,2013-04-08 16:09:00,
2013-04-08 09:14:00,55.9,28.7,29.79,NNE,22,12.3,12.5,35,0.00,,---,0.00,VWS V14.01,2013-04-08 16:14:00,
2013-04-08 09:19:00,56.5,29.9,29.82,NNW,338,5.6,8.5,36,0.00,,---,0.00,VWS V14.01,2013-04-08 16:19:00,
2013-04-08 09:24:00,56.5,29.2,29.82,WSW,248,11.0,15.2,35,0.00,,---,0.00,VWS V14.01,2013-04-08 16:24:00,
2013-04-08 09:29:00,57.0,29.7,29.82,NNW,338,6.0,9.0,35,0.00,,---,0.00,VWS V14.01,2013-04-08 16:29:00,
2013-04-08 09:34:00,57.2,29.1,29.82,North,0,15.9,15.9,34,0.00,,---,0.00,VWS V14.01,2013-04-08 16:34:00,
2013-04-08 09:39:00,57.6,30.1,29.82,NNE,22,17.0,17.0,35,0.00,,---,0.00,VWS V14.01,2013-04-08 16:39:00,
2013-04-08 09:44:00,57.7,29.6,29.82,WNW,292,9.4,9.8,34,0.00,,---,0.00,VWS V14.01,2013-04-08 16:44:00,
2013-04-08 09:49:00,57.9,29.0,29.82,SW,225,9.8,11.0,33,0.00,,---,0.00,VWS V14.01,2013-04-08 16:49:00,
2013-04-08 09:55:00,58.1,29.2,29.82,NNW,338,9.6,12.8,33,0.00,,---,0.00,VWS V14.01,2013-04-08 16:55:00,
2013-04-08 10:00:00,58.6,29.6,29.82,NNW,338,7.4,7.4,33,0.00,,---,0.00,VWS V14.01,2013-04-08 17:00:00,
2013-04-08 10:05:00,59.0,28.4,29.82,North,0,12.8,12.8,31,0.00,,---,0.00,VWS V14.01,2013-04-08 17:05:00,
2013-04-08 10:10:00,59.2,28.6,29.82,North,0,5.8,20.6,31,0.00,,---,0.00,VWS V14.01,2013-04-08 17:10:00,
2013-04-08 10:15:00,59.4,27.9,29.82,NNW,338,16.6,17.7,30,0.00,,---,0.00,VWS V14.01,2013-04-08 17:15:00,
2013-04-08 10:20:00,59.7,28.3,29.82,NNW,338,13.0,13.0,30,0.00,,---,0.00,VWS V14.01,2013-04-08 17:20:00,
2013-04-08 10:25:00,59.9,28.4,29.82,NNE,22,4.3,11.0,30,0.00,,---,0.00,VWS V14.01,2013-04-08 17:25:00,
2013-04-08 10:30:00,60.4,28.9,29.82,WNW,292,8.7,14.3,30,0.00,,---,0.00,VWS V14.01,2013-04-08 17:30:00,
2013-04-08 10:36:00,60.3,27.9,29.82,NNW,338,10.7,17.2,29,0.00,,---,0.00,VWS V14.01,2013-04-08 17:36:00,
2013-04-08 10:41:00,60.4,28.1,29.82,NW,315,7.8,13.4,29,0.00,,---,0.00,VWS V14.01,2013-04-08 17:41:00,
2013-04-08 10:46:00,61.2,27.8,29.82,NNE,22,14.5,14.5,28,0.00,,---,0.00,VWS V14.01,2013-04-08 17:46:00,
2013-04-08 10:52:00,61.5,27.2,29.82,NNW,338,8.7,8.7,27,0.00,,---,0.00,VWS V14.01,2013-04-08 17:52:00,
2013-04-08 10:57:00,61.3,27.1,29.82,NW,315,5.8,5.8,27,0.00,,---,0.00,VWS V14.01,2013-04-08 17:57:00,
2013-04-08 11:02:00,62.6,28.2,29.82,NNW,338,6.5,6.5,27,0.00,,---,0.00,VWS V14.01,2013-04-08 18:02:00,
2013-04-08 11:07:00,62.2,27.9,29.82,WNW,292,6.5,12.1,27,0.00,,---,0.00,VWS V14.01,2013-04-08 18:07:00,
2013-04-08 11:12:00,62.2,27.9,29.82,NNW,338,6.5,16.8,27,0.00,,---,0.00,VWS V14.01,2013-04-08 18:12:00,
2013-04-08 11:17:00,62.6,27.3,29.82,West,270,13.0,16.8,26,0.00,,---,0.00,VWS V14.01,2013-04-08 18:17:00,
2013-04-08 11:22:00,62.6,27.3,29.82,North,0,4.0,10.1,26,0.00,,---,0.00,VWS V14.01,2013-04-08 18:22:00,
2013-04-08 11:27:00,64.2,28.6,29.82,NNW,338,4.3,8.1,26,0.00,,---,0.00,VWS V14.01,2013-04-08 18:27:00,
2013-04-08 11:32:00,64.2,28.6,29.82,NNE,22,11.0,11.0,26,0.00,,---,0.00,VWS V14.01,2013-04-08 18:32:00,
2013-04-08 11:37:00,64.2,27.7,29.82,NNW,338,8.7,8.7,25,0.00,,---,0.00,VWS V14.01,2013-04-08 18:37:00,
2013-04-08 11:42:00,64.0,27.5,29.82,West,270,5.8,5.8,25,0.00,,---,0.00,VWS V14.01,2013-04-08 18:42:00,
2013-04-08 11:47:00,64.4,27.8,29.82,NNW,338,6.5,6.5,25,0.00,,---,0.00,VWS V14.01,2013-04-08 18:47:00,
2013-04-08 11:52:00,63.7,26.2,29.82,NNE,22,8.1,18.6,24,0.00,,---,0.00,VWS V14.01,2013-04-08 18:52:00,
2013-04-08 11:58:00,65.1,28.5,29.82,NNW,338,5.8,5.8,25,0.00,,---,0.00,VWS V14.01,2013-04-08 18:58:00,
2013-04-08 12:03:00,65.1,27.5,29.82,WNW,292,13.0,13.0,24,0.00,,---,0.00,VWS V14.01,2013-04-08 19:03:00,
2013-04-08 12:08:00,64.8,27.2,29.82,NNE,22,10.5,17.0,24,0.00,,---,0.00,VWS V14.01,2013-04-08 19:08:00,
2013-04-08 12:13:00,64.9,27.3,29.82,NW,315,4.9,11.0,24,0.00,,---,0.00,VWS V14.01,2013-04-08 19:13:00,
2013-04-08 12:18:00,65.3,27.6,29.82,WNW,292,9.4,13.6,24,0.00,,---,0.00,VWS V14.01,2013-04-08 19:18:00,
2013-04-08 12:23:00,64.8,27.2,29.82,NNE,22,6.0,7.8,24,0.00,,---,0.00,VWS V14.01,2013-04-08 19:23:00,
2013-04-08 12:28:00,66.0,28.2,29.82,NW,315,6.3,6.3,24,0.00,,---,0.00,VWS V14.01,2013-04-08 19:28:00,
2013-04-08 12:34:00,65.8,28.1,29.82,ENE,68,6.0,6.3,24,0.00,,---,0.00,VWS V14.01,2013-04-08 19:34:00,
2013-04-08 12:39:00,66.7,28.8,29.82,North,0,12.5,12.5,24,0.00,,---,0.00,VWS V14.01,2013-04-08 19:39:00,
2013-04-08 12:44:00,66.2,28.4,29.82,North,0,4.0,10.3,24,0.00,,---,0.00,VWS V14.01,2013-04-08 19:44:00,
2013-04-08 12:49:00,67.5,29.4,29.79,WNW,292,10.7,12.5,24,0.00,,---,0.00,VWS V14.01,2013-04-08 19:49:00,
2013-04-08 12:54:00,66.0,28.2,29.79,NNW,338,7.8,8.1,24,0.00,,---,0.00,VWS V14.01,2013-04-08 19:54:00,
2013-04-08 12:59:00,66.4,28.5,29.79,WSW,248,6.9,11.0,24,0.00,,---,0.00,VWS V14.01,2013-04-08 19:59:00,
2013-04-08 13:04:00,66.7,27.8,29.79,NNE,22,10.3,14.1,23,0.00,,---,0.00,VWS V14.01,2013-04-08 20:04:00,
2013-04-08 13:09:00,67.6,29.6,29.79,SE,135,10.5,10.5,24,0.00,,---,0.00,VWS V14.01,2013-04-08 20:09:00,
2013-04-08 13:14:00,67.8,29.7,29.79,NNW,338,5.8,8.7,24,0.00,,---,0.00,VWS V14.01,2013-04-08 20:14:00,
2013-04-08 13:19:00,68.0,28.9,29.79,NNE,22,11.0,11.0,23,0.00,,---,0.00,VWS V14.01,2013-04-08 20:19:00,
2013-04-08 13:24:00,67.8,28.7,29.79,NW,315,5.6,10.5,23,0.00,,---,0.00,VWS V14.01,2013-04-08 20:24:00,
2013-04-08 13:30:00,68.0,28.9,29.79,WNW,292,10.3,10.3,23,0.00,,---,0.00,VWS V14.01,2013-04-08 20:30:00,
2013-04-08 13:35:00,67.5,28.4,29.79,West,270,8.7,8.7,23,0.00,,---,0.00,VWS V14.01,2013-04-08 20:35:00,
2013-04-08 13:40:00,68.0,28.9,29.79,West,270,12.3,12.3,23,0.00,,---,0.00,VWS V14.01,2013-04-08 20:40:00,
2013-04-08 13:45:00,69.3,29.9,29.79,NNE,22,6.5,6.5,23,0.00,,---,0.00,VWS V14.01,2013-04-08 20:45:00,
2013-04-08 13:50:00,68.7,29.5,29.76,NNW,338,6.3,6.3,23,0.00,,---,0.00,VWS V14.01,2013-04-08 20:50:00,
2013-04-08 13:55:00,69.4,30.1,29.76,NW,315,7.4,7.4,23,0.00,,---,0.00,VWS V14.01,2013-04-08 20:55:00,
2013-04-08 14:00:00,68.9,29.6,29.76,NNW,338,8.5,8.5,23,0.00,,---,0.00,VWS V14.01,2013-04-08 21:00:00,
2013-04-08 14:05:00,69.3,29.9,29.79,WNW,292,11.0,11.0,23,0.00,,---,0.00,VWS V14.01,2013-04-08 21:05:00,
2013-04-08 14:11:00,69.6,30.2,29.79,WNW,292,7.2,9.0,23,0.00,,---,0.00,VWS V14.01,2013-04-08 21:11:00,
2013-04-08 14:16:00,70.3,30.8,29.79,ENE,68,2.9,7.4,23,0.00,,---,0.00,VWS V14.01,2013-04-08 21:16:00,
2013-04-08 14:21:00,69.6,29.1,29.79,NNW,338,8.5,8.5,22,0.00,,---,0.00,VWS V14.01,2013-04-08 21:21:00,
2013-04-08 14:26:00,68.7,29.5,29.79,North,0,7.8,8.7,23,0.00,,---,0.00,VWS V14.01,2013-04-08 21:26:00,
2013-04-08 14:31:00,69.4,29.0,29.79,WSW,248,12.3,12.3,22,0.00,,---,0.00,VWS V14.01,2013-04-08 21:31:00,
2013-04-08 14:36:00,69.4,30.1,29.79,NNW,338,7.8,7.8,23,0.00,,---,0.00,VWS V14.01,2013-04-08 21:36:00,
2013-04-08 14:41:00,69.4,29.0,29.79,East,90,10.7,17.5,22,0.00,,---,0.00,VWS V14.01,2013-04-08 21:41:00,
2013-04-08 14:47:00,69.3,29.9,29.79,North,0,8.1,10.7,23,0.00,,---,0.00,VWS V14.01,2013-04-08 21:47:00,
2013-04-08 14:52:00,69.8,29.3,29.79,WNW,292,5.4,6.5,22,0.00,,---,0.00,VWS V14.01,2013-04-08 21:52:00,
2013-04-08 14:57:00,69.6,29.1,29.79,NNE,22,11.2,13.2,22,0.00,,---,0.00,VWS V14.01,2013-04-08 21:57:00,
2013-04-08 15:02:00,69.6,30.2,29.79,NNW,338,4.3,7.8,23,0.00,,---,0.00,VWS V14.01,2013-04-08 22:02:00,
2013-04-08 15:07:00,70.0,29.4,29.76,NNW,338,6.3,10.5,22,0.00,,---,0.00,VWS V14.01,2013-04-08 22:07:00,
2013-04-08 15:12:00,70.2,29.6,29.76,North,0,6.5,8.1,22,0.00,,---,0.00,VWS V14.01,2013-04-08 22:12:00,
2013-04-08 15:17:00,70.0,29.4,29.76,WNW,292,6.3,12.8,22,0.00,,---,0.00,VWS V14.01,2013-04-08 22:17:00,
2013-04-08 15:22:00,69.8,29.3,29.79,North,0,10.3,10.7,22,0.00,,---,0.00,VWS V14.01,2013-04-08 22:22:00,
2013-04-08 15:28:00,70.3,29.7,29.79,North,0,2.9,6.7,22,0.00,,---,0.00,VWS V14.01,2013-04-08 22:28:00,
2013-04-08 15:33:00,69.4,29.0,29.82,NNW,338,8.7,13.4,22,0.00,,---,0.00,VWS V14.01,2013-04-08 22:33:00,
2013-04-08 15:38:00,70.2,29.6,29.82,North,0,7.8,7.8,22,0.00,,---,0.00,VWS V14.01,2013-04-08 22:38:00,
2013-04-08 15:43:00,70.7,30.0,29.82,NW,315,5.6,8.5,22,0.00,,---,0.00,VWS V14.01,2013-04-08 22:43:00,
2013-04-08 15:48:00,70.0,29.4,29.79,West,270,10.5,10.5,22,0.00,,---,0.00,VWS V14.01,2013-04-08 22:48:00,
2013-04-08 15:53:00,70.5,29.9,29.79,NW,315,6.3,10.1,22,0.00,,---,0.00,VWS V14.01,2013-04-08 22:53:00,
2013-04-08 15:58:00,70.7,30.0,29.79,West,270,3.8,11.9,22,0.00,,---,0.00,VWS V14.01,2013-04-08 22:58:00,
2013-04-08 16:03:00,70.9,30.2,29.79,WNW,292,5.8,10.5,22,0.00,,---,0.00,VWS V14.01,2013-04-08 23:03:00,
2013-04-08 16:08:00,70.9,30.2,29.79,West,270,4.7,7.8,22,0.00,,---,0.00,VWS V14.01,2013-04-08 23:08:00,
2013-04-08 16:13:00,69.8,29.3,29.79,ENE,68,3.6,14.3,22,0.00,,---,0.00,VWS V14.01,2013-04-08 23:13:00,
2013-04-08 16:18:00,70.2,29.6,29.79,WNW,292,11.0,14.5,22,0.00,,---,0.00,VWS V14.01,2013-04-08 23:18:00,
2013-04-08 16:23:00,70.2,29.6,29.79,NW,315,7.6,12.8,22,0.00,,---,0.00,VWS V14.01,2013-04-08 23:23:00,
2013-04-08 16:28:00,69.6,26.8,29.79,North,0,7.6,11.4,20,0.00,,---,0.00,VWS V14.01,2013-04-08 23:28:00,
2013-04-08 16:33:00,70.5,26.3,29.79,NNE,22,11.0,14.5,19,0.00,,---,0.00,VWS V14.01,2013-04-08 23:33:00,
2013-04-08 16:38:00,70.7,30.0,29.79,WNW,292,10.1,10.1,22,0.00,,---,0.00,VWS V14.01,2013-04-08 23:38:00,
2013-04-08 16:43:00,70.5,26.3,29.79,NNE,22,4.5,13.2,19,0.00,,---,0.00,VWS V14.01,2013-04-08 23:43:00,
2013-04-08 16:48:00,70.3,29.7,29.79,WNW,292,7.8,7.8,22,0.00,,---,0.00,VWS V14.01,2013-04-08 23:48:00,
2013-04-08 16:53:00,70.0,25.9,29.79,NNW,338,10.5,13.2,19,0.00,,---,0.00,VWS V14.01,2013-04-08 23:53:00,
2013-04-08 16:58:00,70.2,26.0,29.79,NE,45,4.9,4.9,19,0.00,,---,0.00,VWS V14.01,2013-04-08 23:58:00,
2013-04-08 17:03:00,70.7,26.5,29.76,NW,315,5.4,8.1,19,0.00,,---,0.00,VWS V14.01,2013-04-09 00:03:00,
2013-04-08 17:08:00,70.2,26.0,29.76,NNW,338,15.7,15.7,19,0.00,,---,0.00,VWS V14.01,2013-04-09 00:08:00,
2013-04-08 17:13:00,70.3,26.2,29.76,North,0,6.0,6.0,19,0.00,,---,0.00,VWS V14.01,2013-04-09 00:13:00,
2013-04-08 17:18:00,69.8,25.7,29.79,NNE,22,4.0,4.0,19,0.00,,---,0.00,VWS V14.01,2013-04-09 00:18:00,
2013-04-08 17:24:00,69.8,25.7,29.79,WNW,292,4.7,9.0,19,0.00,,---,0.00,VWS V14.01,2013-04-09 00:24:00,
2013-04-08 17:29:00,70.0,25.9,29.79,North,0,5.8,9.0,19,0.00,,---,0.00,VWS V14.01,2013-04-09 00:29:00,
2013-04-08 17:34:00,70.0,25.9,29.79,WNW,292,5.4,6.7,19,0.00,,---,0.00,VWS V14.01,2013-04-09 00:34:00,
2013-04-08 17:39:00,69.8,25.7,29.79,North,0,8.5,10.3,19,0.00,,---,0.00,VWS V14.01,2013-04-09 00:39:00,
2013-04-08 17:44:00,69.3,26.5,29.79,North,0,3.6,5.6,20,0.00,,---,0.00,VWS V14.01,2013-04-09 00:44:00,
2013-04-08 17:49:00,69.1,26.4,29.79,NNW,338,4.3,5.8,20,0.00,,---,0.00,VWS V14.01,2013-04-09 00:49:00,
2013-04-08 17:54:00,69.3,26.5,29.79,East,90,5.6,6.7,20,0.00,,---,0.00,VWS V14.01,2013-04-09 00:54:00,
2013-04-08 17:59:00,68.9,26.2,29.79,NNW,338,6.3,9.8,20,0.00,,---,0.00,VWS V14.01,2013-04-09 00:59:00,
2013-04-08 18:05:00,68.5,25.9,29.79,NW,315,7.6,7.6,20,0.00,,---,0.00,VWS V14.01,2013-04-09 01:05:00,
2013-04-08 18:10:00,67.8,25.3,29.79,NNE,22,5.8,6.5,20,0.00,,---,0.00,VWS V14.01,2013-04-09 01:10:00,
2013-04-08 18:15:00,67.6,25.2,29.79,NNE,22,5.6,6.5,20,0.00,,---,0.00,VWS V14.01,2013-04-09 01:15:00,
2013-04-08 18:20:00,67.3,24.9,29.79,NNE,22,10.7,10.7,20,0.00,,---,0.00,VWS V14.01,2013-04-09 01:20:00,
2013-04-08 18:25:00,67.1,24.7,29.79,North,0,3.4,6.3,20,0.00,,---,0.00,VWS V14.01,2013-04-09 01:25:00,
2013-04-08 18:30:00,66.7,26.7,29.79,NNW,338,11.0,11.0,22,0.00,,---,0.00,VWS V14.01,2013-04-09 01:30:00,
2013-04-08 18:35:00,66.4,26.4,29.82,ENE,68,7.8,7.8,22,0.00,,---,0.00,VWS V14.01,2013-04-09 01:35:00,
2013-04-08 18:40:00,66.0,27.2,29.82,North,0,6.5,6.5,23,0.00,,---,0.00,VWS V14.01,2013-04-09 01:40:00,
2013-04-08 18:45:00,65.8,27.0,29.82,WSW,248,6.3,6.3,23,0.00,,---,0.00,VWS V14.01,2013-04-09 01:45:00,
2013-04-08 18:50:00,65.7,26.9,29.82,NNW,338,4.9,5.4,23,0.00,,---,0.00,VWS V14.01,2013-04-09 01:50:00,
2013-04-08 18:55:00,65.3,26.6,29.82,WNW,292,4.3,10.5,23,0.00,,---,0.00,VWS V14.01,2013-04-09 01:55:00,
2013-04-08 19:00:00,65.1,26.4,29.82,NNW,338,5.8,9.6,23,0.00,,---,0.00,VWS V14.01,2013-04-09 02:00:00,
2013-04-08 19:05:00,64.9,26.3,29.82,WSW,248,7.6,7.6,23,0.00,,---,0.00,VWS V14.01,2013-04-09 02:05:00,
2013-04-08 19:10:00,64.6,26.0,29.82,NW,315,4.0,6.0,23,0.00,,---,0.00,VWS V14.01,2013-04-09 02:10:00,
2013-04-08 19:15:00,64.4,25.8,29.82,NNW,338,3.1,4.3,23,0.00,,---,0.00,VWS V14.01,2013-04-09 02:15:00,
2013-04-08 19:20:00,64.2,26.7,29.82,NNW,338,5.6,5.6,24,0.00,,---,0.00,VWS V14.01,2013-04-09 02:20:00,
2013-04-08 19:25:00,63.9,26.4,29.82,NNW,338,2.5,4.0,24,0.00,,---,0.00,VWS V14.01,2013-04-09 02:25:00,
2013-04-08 19:30:00,63.7,26.2,29.82,NNW,338,6.3,6.5,24,0.00,,---,0.00,VWS V14.01,2013-04-09 02:30:00,
2013-04-08 19:35:00,63.3,25.9,29.85,NNW,338,3.1,4.7,24,0.00,,---,0.00,VWS V14.01,2013-04-09 02:35:00,
2013-04-08 19:41:00,63.3,25.9,29.85,NNE,22,7.2,7.6,24,0.00,,---,0.00,VWS V14.01,2013-04-09 02:41:00,
2013-04-08 19:46:00,63.1,25.8,29.85,NE,45,6.0,6.0,24,0.00,,---,0.00,VWS V14.01,2013-04-09 02:46:00,
2013-04-08 19:51:00,63.0,25.6,29.85,NNW,338,5.8,5.8,24,0.00,,---,0.00,VWS V14.01,2013-04-09 02:51:00,
2013-04-08 19:56:00,62.8,25.5,29.85,WNW,292,4.3,4.3,24,0.00,,---,0.00,VWS V14.01,2013-04-09 02:56:00,
2013-04-08 20:01:00,62.6,25.3,29.85,WNW,292,4.0,4.0,24,0.00,,---,0.00,VWS V14.01,2013-04-09 03:01:00,
2013-04-08 20:06:00,62.2,26.0,29.85,NW,315,4.0,4.0,25,0.00,,---,0.00,VWS V14.01,2013-04-09 03:06:00,
2013-04-08 20:11:00,62.1,25.9,29.85,WNW,292,3.8,6.0,25,0.00,,---,0.00,VWS V14.01,2013-04-09 03:11:00,
2013-04-08 20:17:00,61.7,25.5,29.85,NNW,338,3.4,3.4,25,0.00,,---,0.00,VWS V14.01,2013-04-09 03:17:00,
2013-04-08 20:22:00,61.5,25.4,29.85,North,0,4.0,4.5,25,0.00,,---,0.00,VWS V14.01,2013-04-09 03:22:00,
2013-04-08 20:27:00,61.5,25.4,29.85,NW,315,4.3,4.3,25,0.00,,---,0.00,VWS V14.01,2013-04-09 03:27:00,
2013-04-08 20:32:00,61.3,25.2,29.85,North,0,2.7,6.0,25,0.00,,---,0.00,VWS V14.01,2013-04-09 03:32:00,
2013-04-08 20:37:00,61.0,24.9,29.85,NNE,22,8.5,8.5,25,0.00,,---,0.00,VWS V14.01,2013-04-09 03:37:00,
2013-04-08 20:42:00,60.8,24.8,29.85,WNW,292,1.1,3.1,25,0.00,,---,0.00,VWS V14.01,2013-04-09 03:42:00,
2013-04-08 20:47:00,60.8,24.8,29.85,NNW,338,2.5,4.7,25,0.00,,---,0.00,VWS V14.01,2013-04-09 03:47:00,
2013-04-08 20:52:00,61.0,25.9,29.88,NNE,22,4.9,4.9,26,0.00,,---,0.00,VWS V14.01,2013-04-09 03:52:00,
2013-04-08 20:57:00,60.8,25.7,29.88,NNW,338,9.8,9.8,26,0.00,,---,0.00,VWS V14.01,2013-04-09 03:57:00,
2013-04-08 21:00:00,60.6,26.5,29.88,NNE,22,4.0,4.7,27,0.00,,---,0.00,VWS V14.01,2013-04-09 04:00:00,
2013-04-08 21:01:00,60.4,26.3,29.88,North,0,4.0,4.0,27,0.00,,---,0.00,VWS V14.01,2013-04-09 04:01:00,
2013-04-08 21:02:00,60.4,26.3,29.88,NW,315,4.5,4.5,27,0.00,,---,0.00,VWS V14.01,2013-04-09 04:02:00,
2013-04-08 21:07:00,60.4,26.3,29.88,North,0,6.0,6.3,27,0.00,,---,0.00,VWS V14.01,2013-04-09 04:07:00,
2013-04-08 21:12:00,60.3,27.0,29.88,WNW,292,5.8,7.6,28,0.00,,---,0.00,VWS V14.01,2013-04-09 04:12:00,
2013-04-08 21:17:00,59.9,26.7,29.88,NNW,338,4.3,4.3,28,0.00,,---,0.00,VWS V14.01,2013-04-09 04:17:00,
2013-04-08 21:22:00,59.7,26.6,29.91,NW,315,6.3,6.3,28,0.00,,---,0.00,VWS V14.01,2013-04-09 04:22:00,
2013-04-08 21:27:00,59.4,27.1,29.91,NNE,22,3.8,3.8,29,0.00,,---,0.00,VWS V14.01,2013-04-09 04:27:00,
2013-04-08 21:32:00,59.2,27.8,29.91,NNE,22,3.1,4.9,30,0.00,,---,0.00,VWS V14.01,2013-04-09 04:32:00,
2013-04-08 21:37:00,58.8,28.3,29.91,North,0,3.8,5.8,31,0.00,,---,0.00,VWS V14.01,2013-04-09 04:37:00,
2013-04-08 21:42:00,59.0,28.4,29.91,NNW,338,5.8,6.3,31,0.00,,---,0.00,VWS V14.01,2013-04-09 04:42:00,
2013-04-08 21:47:00,58.8,29.0,29.91,NNW,338,4.0,4.0,32,0.00,,---,0.00,VWS V14.01,2013-04-09 04:47:00,
2013-04-08 21:52:00,58.8,29.0,29.91,NNE,22,3.6,6.0,32,0.00,,---,0.00,VWS V14.01,2013-04-09 04:52:00,
2013-04-08 21:57:00,58.8,29.8,29.91,NNW,338,3.6,5.4,33,0.00,,---,0.00,VWS V14.01,2013-04-09 04:57:00,
2013-04-08 22:02:00,58.6,29.6,29.91,NNW,338,5.6,5.6,33,0.00,,---,0.00,VWS V14.01,2013-04-09 05:02:00,
2013-04-08 22:07:00,58.5,29.5,29.91,NNW,338,7.4,9.8,33,0.00,,---,0.00,VWS V14.01,2013-04-09 05:07:00,
2013-04-08 22:12:00,58.5,29.5,29.91,North,0,5.4,5.4,33,0.00,,---,0.00,VWS V14.01,2013-04-09 05:12:00,
2013-04-08 22:17:00,58.3,30.1,29.94,WNW,292,6.5,9.0,34,0.00,,---,0.00,VWS V14.01,2013-04-09 05:17:00,
2013-04-08 22:22:00,58.1,29.9,29.94,North,0,1.6,2.0,34,0.00,,---,0.00,VWS V14.01,2013-04-09 05:22:00,
2013-04-08 22:27:00,57.7,30.3,29.94,NW,315,1.3,3.1,35,0.00,,---,0.00,VWS V14.01,2013-04-09 05:27:00,
2013-04-08 22:32:00,57.6,30.1,29.94,WNW,292,4.9,4.9,35,0.00,,---,0.00,VWS V14.01,2013-04-09 05:32:00,
2013-04-08 22:37:00,57.0,29.7,29.94,NW,315,2.0,2.0,35,0.00,,---,0.00,VWS V14.01,2013-04-09 05:37:00,
2013-04-08 22:43:00,57.0,29.7,29.94,NNW,338,3.1,4.9,35,0.00,,---,0.00,VWS V14.01,2013-04-09 05:43:00,
2013-04-08 22:48:00,57.0,30.4,29.94,NNE,22,4.9,4.9,36,0.00,,---,0.00,VWS V14.01,2013-04-09 05:48:00,
2013-04-08 22:53:00,57.0,30.4,29.94,NNW,338,2.7,8.5,36,0.00,,---,0.00,VWS V14.01,2013-04-09 05:53:00,
2013-04-08 22:58:00,56.7,30.0,29.94,NNW,338,3.8,4.9,36,0.00,,---,0.00,VWS V14.01,2013-04-09 05:58:00,
2013-04-08 23:03:00,56.5,29.9,29.94,NNW,338,2.9,2.9,36,0.00,,---,0.00,VWS V14.01,2013-04-09 06:03:00,
2013-04-08 23:08:00,56.3,29.7,29.94,NNE,22,5.4,5.8,36,0.00,,---,0.00,VWS V14.01,2013-04-09 06:08:00,
2013-04-08 23:13:00,56.3,30.4,29.94,North,0,11.2,11.2,37,0.00,,---,0.00,VWS V14.01,2013-04-09 06:13:00,
2013-04-08 23:18:00,56.1,30.2,29.94,NNW,338,3.1,3.8,37,0.00,,---,0.00,VWS V14.01,2013-04-09 06:18:00,
2013-04-08 23:23:00,55.9,30.1,29.94,ENE,68,3.1,4.3,37,0.00,,---,0.00,VWS V14.01,2013-04-09 06:23:00,
2013-04-08 23:28:00,55.6,29.7,29.94,North,0,2.9,4.3,37,0.00,,---,0.00,VWS V14.01,2013-04-09 06:28:00,
2013-04-08 23:33:00,55.6,30.4,29.94,WNW,292,3.8,6.0,38,0.00,,---,0.00,VWS V14.01,2013-04-09 06:33:00,
2013-04-08 23:38:00,55.6,30.4,29.94,North,0,6.0,6.0,38,0.00,,---,0.00,VWS V14.01,2013-04-09 06:38:00,
2013-04-08 23:43:00,55.4,30.2,29.94,WNW,292,5.4,5.4,38,0.00,,---,0.00,VWS V14.01,2013-04-09 06:43:00,
2013-04-08 23:48:00,55.2,30.7,29.94,NNE,22,2.7,3.4,39,0.00,,---,0.00,VWS V14.01,2013-04-09 06:48:00,
2013-04-08 23:53:00,55.0,30.5,29.94,NW,315,3.1,4.3,39,0.00,,---,0.00,VWS V14.01,2013-04-09 06:53:00,
2013-04-08 23:58:00,54.7,30.2,29.94,NNW,338,3.4,3.4,39,0.00,,---,0.00,VWS V14.01,2013-04-09 06:58:00,